When you browse on this site, cookies collect data to enhance your experience and personalize the content and advertising you see.
Visit our Privacy Policy to learn more. By continuing to use the site, you agree to this use of cookies and data.
  • Em Portugal
  • Lista de países
  • Para 7 dias
  • Temperatura da água
  • Mapa do tempo
  • Widgets de tempo
  • user-avatar
    Iniciar Sessão

    Previsão horária em Useldange

    Hoje, 7 Abril, Terça-feira

    Tempo Temperatura Precipitação Vento Pressão Humidade
    00:00 +12°C° 0 mm 1 m/s 744 mmHg 92%
    01:00 +11°C° 0 mm 1 m/s 744 mmHg 93%
    02:00 +11°C° 0 mm 1 m/s 745 mmHg 93%
    03:00 +10°C° 0 mm 2 m/s 745 mmHg 94%
    04:00 +10°C° 0 mm 2 m/s 745 mmHg 94%
    05:00 +10°C° 0 mm 2 m/s 745 mmHg 94%
    06:00 +10°C° 0 mm 2 m/s 746 mmHg 94%
    07:00 +13°C° 0 mm 2 m/s 746 mmHg 87%
    08:00 +14°C° 0 mm 2 m/s 746 mmHg 81%
    09:00 +16°C° 0 mm 3 m/s 746 mmHg 74%
    10:00 +17°C° 0.1 mm 2 m/s 746 mmHg 69%
    11:00 +18°C° 0.1 mm 2 m/s 746 mmHg 64%
    12:00 +20°C° 0.1 mm 2 m/s 746 mmHg 59%
    13:00 +20°C° 0.1 mm 2 m/s 745 mmHg 59%
    14:00 +20°C° 0.1 mm 2 m/s 745 mmHg 59%
    15:00 +20°C° 0.1 mm 2 m/s 744 mmHg 58%
    16:00 +18°C° 0.1 mm 2 m/s 744 mmHg 65%
    17:00 +17°C° 0.1 mm 2 m/s 744 mmHg 71%
    18:00 +16°C° 0.1 mm 2 m/s 744 mmHg 77%
    19:00 +15°C° 0 mm 2 m/s 744 mmHg 78%
    20:00 +14°C° 0 mm 2 m/s 744 mmHg 80%
    21:00 +13°C° 0 mm 2 m/s 744 mmHg 81%
    22:00 +12°C° 0 mm 1 m/s 744 mmHg 81%
    23:00 +12°C° 0 mm 1 m/s 744 mmHg 81%

    Amanhã, 8 Abril, Quarta-feira

    Tempo Temperatura Precipitação Vento Pressão Humidade
    00:00 +11°C° 0 mm 1 m/s 744 mmHg 81%
    01:00 +11°C° 0 mm 1 m/s 744 mmHg 82%
    02:00 +11°C° 0 mm 1 m/s 743 mmHg 83%
    03:00 +10°C° 0 mm 1 m/s 743 mmHg 84%
    04:00 +11°C° 0 mm 1 m/s 743 mmHg 83%
    05:00 +11°C° 0 mm 1 m/s 743 mmHg 82%
    06:00 +11°C° 0 mm 1 m/s 743 mmHg 81%
    07:00 +13°C° 0 mm 1 m/s 743 mmHg 74%
    08:00 +15°C° 0 mm 1 m/s 743 mmHg 67%
    09:00 +19°C° 0 mm 1 m/s 743 mmHg 60%
    10:00 +20°C° 0 mm 1 m/s 743 mmHg 55%
    11:00 +21°C° 0 mm 1 m/s 743 mmHg 50%
    12:00 +22°C° 0 mm 1 m/s 743 mmHg 44%
    13:00 +22°C° 0 mm 1 m/s 742 mmHg 43%
    14:00 +22°C° 0 mm 1 m/s 742 mmHg 43%
    15:00 +22°C° 0 mm 1 m/s 742 mmHg 42%
    16:00 +20°C° 0 mm 1 m/s 741 mmHg 48%
    17:00 +19°C° 0 mm 1 m/s 741 mmHg 54%
    18:00 +16°C° 0 mm 1 m/s 741 mmHg 59%
    19:00 +16°C° 0 mm 1 m/s 741 mmHg 59%
    20:00 +15°C° 0 mm 1 m/s 742 mmHg 59%
    21:00 +14°C° 0 mm 0 m/s 742 mmHg 59%
    22:00 +13°C° 0 mm 0 m/s 742 mmHg 60%
    23:00 +13°C° 0 mm 0 m/s 742 mmHg 61%

    Depois de amanhã, 9 Abril, Quinta-feira

    Tempo Temperatura Precipitação Vento Pressão Humidade
    00:00 +13°C° 0 mm 0 m/s 741 mmHg 61%
    01:00 +12°C° 0 mm 0 m/s 741 mmHg 63%
    02:00 +12°C° 0 mm 0 m/s 741 mmHg 64%
    03:00 +11°C° 0 mm 0 m/s 741 mmHg 66%
    04:00 +12°C° 0 mm 0 m/s 741 mmHg 68%
    05:00 +12°C° 0 mm 0 m/s 741 mmHg 70%
    06:00 +12°C° 0 mm 0 m/s 741 mmHg 71%
    07:00 +14°C° 0 mm 0 m/s 742 mmHg 66%
    08:00 +16°C° 0 mm 0 m/s 742 mmHg 61%
    09:00 +18°C° 0 mm 0 m/s 742 mmHg 55%
    10:00 +20°C° 0 mm 1 m/s 742 mmHg 51%
    11:00 +21°C° 0 mm 1 m/s 742 mmHg 47%
    12:00 +22°C° 0 mm 1 m/s 742 mmHg 42%
    13:00 +22°C° 0 mm 1 m/s 742 mmHg 43%
    14:00 +22°C° 0 mm 1 m/s 742 mmHg 44%
    15:00 +20°C° 0 mm 0 m/s 741 mmHg 44%
    16:00 +20°C° 0 mm 1 m/s 741 mmHg 50%
    17:00 +19°C° 0 mm 1 m/s 741 mmHg 56%
    18:00 +16°C° 0 mm 1 m/s 741 mmHg 61%
    19:00 +16°C° 0 mm 1 m/s 741 mmHg 65%
    20:00 +15°C° 0 mm 1 m/s 742 mmHg 68%
    21:00 +14°C° 0 mm 1 m/s 742 mmHg 71%
    22:00 +13°C° 0 mm 1 m/s 742 mmHg 74%
    23:00 +13°C° 0 mm 1 m/s 742 mmHg 76%

    10 Abril, Sexta-feira

    Tempo Temperatura Precipitação Vento Pressão Humidade
    00:00 +12°C° 0 mm 1 m/s 742 mmHg 79%
    01:00 +12°C° 0 mm 1 m/s 742 mmHg 81%
    02:00 +12°C° 0 mm 1 m/s 742 mmHg 82%
    03:00 +12°C° 0 mm 1 m/s 741 mmHg 84%
    04:00 +12°C° 0 mm 1 m/s 742 mmHg 83%
    05:00 +12°C° 0 mm 1 m/s 742 mmHg 83%
    06:00 +13°C° 0 mm 1 m/s 742 mmHg 83%
    07:00 +14°C° 0 mm 1 m/s 742 mmHg 77%
    08:00 +16°C° 0 mm 1 m/s 742 mmHg 71%
    09:00 +19°C° 0 mm 1 m/s 742 mmHg 65%
    10:00 +20°C° 0 mm 1 m/s 742 mmHg 61%
    11:00 +21°C° 0 mm 1 m/s 742 mmHg 56%
    12:00 +21°C° 0 mm 2 m/s 741 mmHg 51%
    13:00 +22°C° 0 mm 1 m/s 741 mmHg 50%
    14:00 +22°C° 0 mm 1 m/s 740 mmHg 49%
    15:00 +22°C° 0 mm 1 m/s 740 mmHg 48%
    16:00 +21°C° 0 mm 1 m/s 740 mmHg 54%
    17:00 +19°C° 0 mm 1 m/s 739 mmHg 60%
    18:00 +16°C° 0 mm 1 m/s 739 mmHg 66%
    19:00 +16°C° 0 mm 1 m/s 739 mmHg 68%
    20:00 +15°C° 0 mm 1 m/s 739 mmHg 70%
    21:00 +14°C° 0 mm 1 m/s 739 mmHg 72%
    22:00 +13°C° 0 mm 1 m/s 739 mmHg 74%
    23:00 +13°C° 0 mm 1 m/s 739 mmHg 76%

    11 Abril, Sábado

    Tempo Temperatura Precipitação Vento Pressão Humidade
    00:00 +12°C° 0 mm 1 m/s 739 mmHg 79%
    01:00 +12°C° 0 mm 1 m/s 739 mmHg 81%
    02:00 +12°C° 0 mm 1 m/s 739 mmHg 82%
    03:00 +11°C° 0 mm 1 m/s 738 mmHg 84%
    04:00 +11°C° 0 mm 1 m/s 738 mmHg 85%
    05:00 +11°C° 0 mm 1 m/s 738 mmHg 86%
    06:00 +11°C° 0 mm 1 m/s 738 mmHg 87%
    07:00 +13°C° 0 mm 1 m/s 739 mmHg 81%
    08:00 +15°C° 0 mm 2 m/s 739 mmHg 75%
    09:00 +17°C° 0 mm 2 m/s 739 mmHg 69%
    10:00 +18°C° 0 mm 2 m/s 739 mmHg 64%
    11:00 +19°C° 0 mm 3 m/s 739 mmHg 59%
    12:00 +21°C° 0 mm 3 m/s 739 mmHg 54%
    13:00 +20°C° 0.1 mm 3 m/s 738 mmHg 56%
    14:00 +20°C° 0.1 mm 4 m/s 738 mmHg 58%
    15:00 +20°C° 0.1 mm 4 m/s 738 mmHg 59%
    16:00 +18°C° 0.3 mm 3 m/s 738 mmHg 69%
    17:00 +16°C° 0.3 mm 3 m/s 738 mmHg 79%
    18:00 +14°C° 0.3 mm 2 m/s 738 mmHg 88%
    19:00 +14°C° 0.5 mm 2 m/s 738 mmHg 91%
    20:00 +14°C° 0.5 mm 1 m/s 738 mmHg 93%
    21:00 +13°C° 0.5 mm 1 m/s 738 mmHg 95%
    22:00 +13°C° 0.3 mm 1 m/s 738 mmHg 96%
    23:00 +13°C° 0.3 mm 2 m/s 738 mmHg 96%

    12 Abril, Domingo

    Tempo Temperatura Precipitação Vento Pressão Humidade
    00:00 +13°C° 0.3 mm 2 m/s 738 mmHg 96%
    01:00 +13°C° 0.2 mm 2 m/s 737 mmHg 96%
    02:00 +13°C° 0.2 mm 2 m/s 737 mmHg 96%
    03:00 +13°C° 0.2 mm 2 m/s 736 mmHg 96%
    04:00 +12°C° 0.2 mm 3 m/s 736 mmHg 96%
    05:00 +12°C° 0.2 mm 3 m/s 736 mmHg 96%
    06:00 +12°C° 0.2 mm 4 m/s 736 mmHg 95%
    07:00 +12°C° 0.1 mm 4 m/s 735 mmHg 94%
    08:00 +12°C° 0.1 mm 4 m/s 735 mmHg 92%
    09:00 +13°C° 0.1 mm 4 m/s 735 mmHg 91%
    10:00 +13°C° 0.2 mm 4 m/s 734 mmHg 87%
    11:00 +14°C° 0.2 mm 4 m/s 734 mmHg 83%
    12:00 +15°C° 0.2 mm 4 m/s 733 mmHg 80%
    13:00 +15°C° 0.4 mm 4 m/s 733 mmHg 79%
    14:00 +15°C° 0.4 mm 4 m/s 732 mmHg 79%
    15:00 +15°C° 0.4 mm 4 m/s 732 mmHg 79%
    16:00 +14°C° 0.3 mm 4 m/s 731 mmHg 84%
    17:00 +13°C° 0.3 mm 3 m/s 731 mmHg 88%
    18:00 +12°C° 0.3 mm 3 m/s 731 mmHg 92%
    19:00 +12°C° 0.1 mm 2 m/s 731 mmHg 94%
    20:00 +12°C° 0.1 mm 2 m/s 731 mmHg 95%
    21:00 +12°C° 0.1 mm 1 m/s 732 mmHg 96%
    22:00 +12°C° 0 mm 1 m/s 732 mmHg 97%
    23:00 +11°C° 0 mm 1 m/s 732 mmHg 97%
    Mostrar mais